This demonstration page uses our WeatherBlox Daily Observations layout. Learn more.

Left ArrowRight Arrow

Hourly Observations for November 6, 2020

Temp ( °F °C ) Dew Point ( °F °C ) Humidity (%) Winds ( mph kmh ) Pressure ( in mb ) Visibility ( mi km ) Precip ( " mm )
12:53 am 00:53 Clear 38 3.3 36 2.2 93 93 ENE 3 6 30.30 1026 10 16 0.00 0.00
1:53 am 01:53 Clear 37 2.8 35 1.7 93 93 Calm 30.29 1026 10 16 0.00 0.00
2:53 am 02:53 Clear 36 2.2 35 1.7 97 97 Calm 30.30 1026 9 14 0.00 0.00
3:53 am 03:53 Clear 36 2.2 34 1.1 93 93 Calm 30.29 1026 8 13 0.00 0.00
4:53 am 04:53 Clear 34 1.1 33 0.6 97 97 Calm 30.30 1026 8 13 0.00 0.00
5:53 am 05:53 Clear 34 1.1 33 0.6 97 97 Calm 30.32 1027 10 16 0.00 0.00
6:53 am 06:53 Clear with Mist and Fog 33 0.6 32 0 96 96 Calm 30.32 1027 5 8 0.00 0.00
7:53 am 07:53 Sunny 35 1.7 34 1.1 96 96 Calm 30.34 1027 10 16 0.00 0.00
8:53 am 08:53 Sunny 46 7.8 42 5.6 86 86 Calm 30.34 1028 8 13 0.00 0.00
9:53 am 09:53 Sunny 54 12.2 46 7.8 75 75 Calm 30.35 1028 10 16 0.00 0.00
10:53 am 10:53 Sunny 60 15.6 48 8.9 65 65 Calm 30.35 1028 10 16 0.00 0.00
11:53 am 11:53 Sunny 68 20 46 7.8 45 45 VRB 3 6 30.33 1027 10 16 0.00 0.00
12:53 pm 12:53 Sunny 71 21.7 45 7.2 39 39 SSW 8 13 30.29 1026 10 16 0.00 0.00
1:53 pm 13:53 Sunny 72 22.2 44 6.7 37 37 S 8 13 30.27 1025 10 16 0.00 0.00
2:53 pm 14:53 Sunny 73 22.8 43 6.1 34 34 VRB 6 9 30.26 1025 10 16 0.00 0.00
3:53 pm 15:53 Sunny 71 21.7 41 5 34 34 SW 5 7 30.26 1025 10 16 0.00 0.00
4:53 pm 16:53 Sunny 68 20 41 5 38 38 SSW 5 7 30.26 1025 10 16 0.00 0.00
5:53 pm 17:53 Clear 54 12.2 42 5.6 64 64 Calm 30.27 1025 10 16 0.00 0.00
6:53 pm 18:53 Clear 49 9.4 41 5 74 74 Calm 30.28 1025 10 16 0.00 0.00
7:53 pm 19:53 Clear 45 7.2 39 3.9 80 80 Calm 30.29 1026 10 16 0.00 0.00
8:53 pm 20:53 Clear 43 6.1 39 3.9 86 86 Calm 30.27 1025 10 16 0.00 0.00
9:53 pm 21:53 Clear 41 5 38 3.3 89 89 Calm 30.28 1025 10 16 0.00 0.00
10:53 pm 22:53 Clear 40 4.4 37 2.8 89 89 Calm 30.27 1025 10 16 0.00 0.00
11:53 pm 23:53 Clear 39 3.9 37 2.8 93 93 Calm 30.27 1025 10 16 0.00 0.00

Powered by AerisWeather